Location: Central Falls
(41.8900°N, 71.3929°W)
Time: 12:58:49
(UTC+00:00)

Altair - Pass Details

Date: 15 December 2023
Orbit: 1501 x 1682 km, 47.2° (Epoch: 20 February)

Event Time Altitude Azimuth Distance (km) Brightness Sun altitude
Rises 12:56:10 0° 274° (W) 4,857 9.6 6.8°
Reaches altitude 10° 12:59:24 10° 278° (W) 3,847 9.1 7.2°
Maximum altitude 13:09:06 64° 359° (N) 1,719 7.8 8.6°
Drops below altitude 10° 13:18:26 10° 80° (E) 3,707 10.1 9.8°
Sets 13:21:30 0° 84° (E) 4,671 10.7 10.2°
